Craig, CO

11:51 AM MDT on September 20, 2017 (GMT -0600)
Craig-Moffat

Weather History for KCAG - November, 2013

Change the Weather History Date:

Thursday, November 7, 2013

  Actual Average Record
Temperature  
Mean Temperature 30 °F 34 °F  
Max Temperature 45 °F 49 °F 72 °F (1999)
Min Temperature 15 °F 20 °F 3 °F (1996)
Degree Days  
Heating Degree Days 35 31  
Month to date heating degree days 252 206  
Since 1 July heating degree days 1142 1251  
Cooling Degree Days 0 0  
Month to date cooling degree days 0 0  
Year to date cooling degree days 377 142  
Moisture  
Dew Point 23 °F    
Average Humidity 69    
Maximum Humidity 92    
Minimum Humidity 45    
Precipitation  
Precipitation 0.00 in 0.05 in 0.15 in (2001)
Month to date precipitation 0.35 0.39  
Year to date precipitation 11.86 14.00  
Sea Level Pressure  
Sea Level Pressure 30.46 in    
Wind  
Wind Speed 4 mph (East)    
Max Wind Speed 13 mph    
Max Gust Speed 16 mph    
Visibility 10 miles    
Events      
T = Trace of Precipitation, MM = Missing Value Source: NWS Daily Summary

Daily Weather History Graph

Daily Weather History Graph

Search for Another Location

Airport or City:

Trip Planner

Search our weather history database for the weather conditions in past years. The results will help you decide how hot, cold, wet, or windy it might be!

Date:

Astronomy

Nov. 07, 2013 Rise Set
Actual Time 6:47 AM MST 4:59 PM MST
Civil Twilight 6:18 AM MST 5:28 PM MST
Nautical Twilight 5:46 AM MST 6:00 PM MST
Astronomical Twilight 5:14 AM MST 6:32 PM MST
Moon 10:58 AM MST (11/7) 9:14 PM MST (11/7)
Length of Visible Light 11h 09m
Length of Day
10h 12m
Waxing Crescent, 23% of the Moon is Illuminated
Nov 7
Waxing Crescent
Nov 9
First Quarter
Nov 17
Full
Nov 25
Last Quarter
Dec 2
New

Hourly Weather History & Observations

Time (MST) Temp. Windchill Dew Point Humidity Pressure Visibility Wind Dir Wind Speed Gust Speed Precip Events Conditions
12:53 AM 21.9 °F 17.2 °F 19.0 °F 89% 30.61 in 10.0 mi SW 3.5 mph - N/A   Mostly Cloudy
1:53 AM 18.0 °F - 16.0 °F 92% 30.64 in 10.0 mi Calm Calm - N/A   Partly Cloudy
2:53 AM 18.0 °F - 16.0 °F 92% 30.63 in 10.0 mi Calm Calm - N/A   Clear
3:53 AM 15.1 °F - 12.0 °F 88% 30.64 in 10.0 mi Calm Calm - N/A   Clear
4:53 AM 15.1 °F - 12.9 °F 91% 30.65 in 10.0 mi Calm Calm - N/A   Clear
5:53 AM 15.1 °F - 12.9 °F 91% 30.67 in 10.0 mi Calm Calm - N/A   Clear
6:53 AM 17.1 °F - 14.0 °F 88% 30.67 in 10.0 mi Calm Calm - N/A   Clear
7:53 AM 19.0 °F - 17.1 °F 92% 30.69 in 10.0 mi Calm Calm - N/A   Clear
8:53 AM 26.1 °F - 21.9 °F 84% 30.66 in 10.0 mi Calm Calm - N/A   Clear
9:53 AM 36.0 °F 28.5 °F 21.9 °F 57% 30.55 in 10.0 mi East 10.4 mph - N/A   Clear
10:53 AM 39.0 °F 32.8 °F 23.0 °F 53% 30.53 in 10.0 mi East 9.2 mph - N/A   Clear
11:53 AM 39.9 °F 32.9 °F 23.0 °F 51% 30.48 in 10.0 mi ENE 11.5 mph - N/A   Clear
12:53 PM 43.0 °F 38.2 °F 25.0 °F 49% 30.42 in 10.0 mi East 8.1 mph - N/A   Clear
1:53 PM 44.1 °F 39.0 °F 25.0 °F 47% 30.40 in 10.0 mi East 9.2 mph - N/A   Clear
2:53 PM 43.0 °F 38.2 °F 25.0 °F 49% 30.38 in 10.0 mi East 8.1 mph - N/A   Partly Cloudy
3:53 PM 43.0 °F 38.2 °F 26.1 °F 51% 30.36 in 10.0 mi ESE 8.1 mph - N/A   Overcast
4:53 PM 43.0 °F 38.2 °F 26.1 °F 51% 30.34 in 10.0 mi East 8.1 mph - N/A   Mostly Cloudy
5:53 PM 39.9 °F - 27.0 °F 60% 30.34 in 10.0 mi Calm Calm - N/A   Mostly Cloudy
6:53 PM 36.0 °F - 28.9 °F 76% 30.35 in 10.0 mi Calm Calm - N/A   Overcast
7:53 PM 34.0 °F - 30.0 °F 85% 30.33 in 10.0 mi Calm Calm - N/A   Overcast
8:53 PM 35.1 °F 32.2 °F 30.0 °F 82% 30.27 in 10.0 mi SE 3.5 mph - N/A   Overcast
9:53 PM 37.0 °F - 30.0 °F 76% 30.19 in 10.0 mi Calm Calm - N/A   Overcast
10:53 PM 36.0 °F 31.1 °F 30.0 °F 79% 30.16 in 10.0 mi ENE 5.8 mph - N/A   Overcast
11:53 PM 35.1 °F - 28.9 °F 78% 30.12 in 10.0 mi Calm Calm - N/A   Partly Cloudy